Regional Weather Roundup
Issued by NWS

Home | Current Version | Previous Version | Text Only | Print | Product List | Glossary Off
Versions: 1 2 3 4 5 6 7 8 9 10 11 12 13 14 15 16 17 18 19 20 21 22 23 24 25 26 27 28 29 30 31 32 33 34 35 36 37 38 39 40 41 42 43 44 45 46 47 48 49 50

000
ASUS43 KBIS 240010
RWRND

NORTH DAKOTA REGIONAL WEATHER ROUNDUP
NATIONAL WEATHER SERVICE BISMARCK ND
600 PM CST THU FEB 23 2017

NOTE: "FAIR" INDICATES FEW OR NO CLOUDS BELOW 12,000 FEET WITH NO
SIGNIFICANT WEATHER AND/OR OBSTRUCTIONS TO VISIBILITY.


NDZ001>003-009>011-017-240100-
NORTHWEST NORTH DAKOTA

CITY           SKY/WX    TMP DP  RH WIND       PRES   REMARKS
WILLISTON      MOCLDY    25  14  63 E6        30.11S WCI  18
6HR MIN TEMP:  25; 6HR MAX TEMP:  28; 6HR PCP: TRACE;

MINOT          FAIR      25  16  68 N8        30.11R WCI  16
MINOT AFB      CLEAR     23  15  70 N3        30.11R
$$

NDZ018>021-031>035-040>046-240100-
SOUTHWEST NORTH DAKOTA

CITY           SKY/WX    TMP DP  RH WIND       PRES   REMARKS
BISMARCK       CLOUDY    27  21  78 N14       30.07R WCI  16
6HR MIN TEMP:  27; 6HR MAX TEMP:  32;

DICKINSON      CLOUDY    21  18  88 NE13      30.02R WCI   9
GARRISON         N/A     23  13  65 N6        30.08R WCI  16
6HR MIN TEMP:  23; 6HR MAX TEMP:  26;

HETTINGER ARPT CLOUDY    27  24  89 NE14      30.00R FOG     WCI  16
$$

NDZ004>008-012>016-024-026-027-054-240100-
NORTHEAST NORTH DAKOTA

CITY           SKY/WX    TMP DP  RH WIND       PRES   REMARKS
GRAND FORKS    CLOUDY    25  12  58 N16       30.12R WCI  12
GRND FRKS AFB  PTCLDY    22  15  74 NE10      30.13R WCI  12
DEVILS LAKE    FAIR      23  17  78 N10       30.10S WCI  12
$$

NDZ022-023-025-028>030-036>039-047>053-240100-
SOUTHEAST NORTH DAKOTA

CITY           SKY/WX    TMP DP  RH WIND       PRES   REMARKS
FARGO          CLOUDY    26  18  71 N20       30.08R WCI  12
6HR MIN TEMP:  26; 6HR MAX TEMP:  31;

JAMESTOWN      CLOUDY    27  23  85 NE12      30.05R WCI  17
$$





USA.gov is the U.S. government's official web portal to all federal, state and local government web resources and services.